Tracking 19192 objects as of 18-Jun-2018
HD Live streaming from Space Station
objects crossing your sky now

LINK

Track LINK now!
10-day predictions
LINK is classified as:


NORAD ID: 42714
Int'l Code: 1998-067LV
Perigee: 334.9 km
Apogee: 338.4 km
Inclination: 51.6 °
Period: 91.1 minutes
Semi major axis: 6707 km
RCS: Unknown
Launch date: November 20, 1998
Source: South Korea (SKOR)
Launch site: TYURATAM MISSILE AND SPACE COMPLEX (TTMTR)
Uplink (MHz):
Downlink (MHz): 436.030
Beacon (MHz):
Mode: 1200bps BPSK
Call sign: D80LW
Status: Inactive

aabbcc
Your satellite tracking list
Your tracking list is empty




NASA's NSSDC Master Catalog

Two Line Element Set (TLE):
1 42714U 98067LV  18168.95908109  .00051193  00000-0  26750-3 0  9995
2 42714  51.6260 343.7011 0002637 208.7018 151.3839 15.80324943 61919
Source of the keplerian elements: AFSPC